Location: Newark
(7.1028°S, 35.3258°W)
Time: 09:43:32
(UTC+00:00)

Courier 1B - All Passes

Search period start: 19 February 2020 00:00
Search period end: 29 February 2020 00:00
Orbit: 962 x 1209 km, 28.3° (Epoch: 18 February)

Date Brightness Start Highest point End Pass type
(mag) Time Alt. Az. Time Alt. Az. Time Alt. Az.
19 Feb - 01:48:34 10° NNW 01:53:11 20° NNE 01:57:50 10° ENE night (unlit)
19 Feb - 03:40:42 10° WNW 03:47:11 79° NNE 03:53:55 10° ESE night (unlit)
19 Feb - 05:35:39 10° W 05:41:30 32° SSW 05:47:37 10° SE visible
19 Feb - 07:33:05 10° SW 07:36:52 15° S 07:40:47 10° SSE visible
19 Feb - 09:29:41 10° SSW 09:33:05 13° S 09:36:33 10° SSE daylight
19 Feb - 11:23:00 10° SSW 11:29:00 25° SSE 11:35:10 10° ESE daylight
19 Feb - 13:16:17 10° SW 13:24:00 64° SSE 13:31:47 10° ENE daylight
19 Feb - 15:11:06 10° W 15:18:27 43° NNW 15:25:42 10° NE daylight
19 Feb - 17:10:25 10° NW 17:13:09 12° NNW 17:15:50 10° N daylight
20 Feb - 00:56:07 10° N 00:59:19 14° NNE 01:02:31 10° ENE night (unlit)
20 Feb - 02:47:09 10° NW 02:53:28 56° NNE 02:59:54 10° ESE night (unlit)
20 Feb - 04:41:27 10° W 04:47:34 42° SSW 04:53:58 10° SE visible
20 Feb - 06:38:20 10° SW 06:42:36 17° SSW 06:47:01 10° SSE visible
20 Feb - 08:35:48 10° SSW 08:38:40 12° S 08:41:34 10° SSE daylight
20 Feb - 10:29:30 10° SSW 10:34:44 20° SSE 10:40:05 10° ESE daylight
20 Feb - 12:22:32 10° SW 12:29:56 48° SSE 12:37:28 10° E daylight
20 Feb - 14:16:46 10° WSW 14:24:28 59° NNW 14:32:08 10° NE daylight
20 Feb - 16:14:07 10° WNW 16:19:01 18° NNW 16:23:51 10° N daylight
21 Feb - 01:53:47 10° NW 01:59:45 39° NNE 02:05:44 10° E night (unlit)
21 Feb - 03:47:23 10° WNW 03:53:44 57° SSW 04:00:17 10° SE night (unlit)
21 Feb - 05:43:39 10° WSW 05:48:26 20° SSW 05:53:24 10° SSE visible
21 Feb - 07:41:36 10° SSW 07:44:15 12° S 07:46:57 10° SSE visible
21 Feb - 09:36:03 10° SSW 09:40:24 16° SSE 09:44:52 10° SE daylight
21 Feb - 11:28:56 10° SW 11:35:49 37° SSE 11:42:55 10° E daylight
21 Feb - 13:22:40 10° WSW 13:30:27 79° NNW 13:38:20 10° NE daylight
21 Feb - 15:18:48 10° W 15:24:56 25° NNW 15:31:00 10° NNE daylight
22 Feb - 01:00:34 10° NNW 01:05:59 27° NNE 01:11:21 10° E night (unlit)
22 Feb - 02:53:29 10° WNW 02:59:58 79° SSW 03:06:33 10° ESE night (unlit)
22 Feb - 04:49:06 10° WSW 04:54:22 25° SSW 04:59:50 10° SSE visible
22 Feb - 06:47:01 10° SSW 06:49:54 13° S 06:52:50 10° SSE visible
22 Feb - 08:42:37 10° SSW 08:46:03 14° S 08:49:34 10° SE daylight
22 Feb - 10:35:26 10° SW 10:41:41 29° SSE 10:48:10 10° E daylight
22 Feb - 12:28:46 10° WSW 12:36:26 79° SSE 12:44:19 10° ENE daylight
22 Feb - 14:23:59 10° W 14:30:52 34° NNW 14:37:47 10° NNE daylight
23 Feb - 00:07:38 10° NNW 00:12:10 19° NNE 00:16:38 10° ENE night (unlit)
23 Feb - 01:59:45 10° NW 02:06:15 74° NNE 02:12:44 10° ESE night (unlit)
23 Feb - 03:54:42 10° W 04:00:26 33° SSW 04:06:19 10° SE night (unlit)
23 Feb - 05:52:14 10° SW 05:55:37 14° S 05:59:05 10° SSE visible
23 Feb - 07:49:06 10° SSW 07:51:41 12° S 07:54:18 10° SSE visible
23 Feb - 09:42:01 10° SSW 09:47:30 22° SSE 09:53:11 10° ESE daylight
23 Feb - 11:35:01 10° SW 11:42:25 60° SSE 11:50:06 10° ENE daylight
23 Feb - 13:29:32 10° WSW 13:36:52 46° NNW 13:44:18 10° NE daylight
23 Feb - 15:28:03 10° NW 15:31:36 13° NNW 15:35:10 10° N daylight
23 Feb - 23:15:07 10° N 23:18:16 14° NNE 23:21:20 10° NE visible
24 Feb - 01:06:09 10° NW 01:12:31 52° NNE 01:18:48 10° ESE night (unlit)
24 Feb - 03:00:27 10° W 03:06:34 44° SSW 03:12:46 10° SE night (unlit)
24 Feb - 04:57:25 10° SW 05:01:26 17° SSW 05:05:32 10° SSE visible
24 Feb - 06:55:22 10° SSW 06:57:19 11° S 06:59:18 10° SSE visible
24 Feb - 08:48:41 10° SSW 08:53:17 18° SSE 08:58:02 10° ESE daylight
24 Feb - 10:41:25 10° SW 10:48:23 45° SSE 10:55:41 10° E daylight
24 Feb - 12:35:21 10° WSW 12:42:51 62° NNW 12:50:36 10° NE daylight
24 Feb - 14:32:14 10° WNW 14:37:27 19° NNW 14:42:42 10° NNE daylight
25 Feb - 00:12:42 10° NW 00:18:47 37° NNE 00:24:41 10° E night (unlit)
25 Feb - 02:06:21 10° WNW 02:12:47 61° SSW 02:19:12 10° SE night (unlit)
25 Feb - 04:02:39 10° WSW 04:07:20 20° SSW 04:12:06 10° SSE visible
25 Feb - 06:01:04 10° SSW 06:02:59 11° S 06:04:55 10° SSE visible
25 Feb - 07:55:24 10° SSW 07:59:01 15° SSE 08:02:45 10° SE visible
25 Feb - 09:47:57 10° SW 09:54:20 34° SSE 10:01:04 10° E daylight
25 Feb - 11:41:24 10° WSW 11:48:52 83° NNW 11:56:42 10° ENE daylight
25 Feb - 13:37:10 10° W 13:43:21 26° NNW 13:49:39 10° NNE daylight
25 Feb - 23:19:25 10° NNW 23:24:59 26° NNE 23:30:20 10° E visible
26 Feb - 01:12:23 10° WNW 01:19:02 84° SSW 01:25:32 10° ESE night (unlit)
26 Feb - 03:08:02 10° WSW 03:13:21 26° SSW 03:18:42 10° SSE night (unlit)
26 Feb - 05:06:15 10° SSW 05:08:41 12° S 05:11:09 10° SSE visible
26 Feb - 07:02:09 10° SSW 07:04:44 12° S 07:07:22 10° SSE visible
26 Feb - 08:54:34 10° SSW 09:00:16 26° SSE 09:06:14 10° ESE daylight
26 Feb - 10:47:37 10° SW 10:54:55 74° SSE 11:02:37 10° ENE daylight
26 Feb - 12:42:33 10° W 12:49:18 35° NNW 12:56:18 10° NNE daylight
26 Feb - 22:26:22 10° NNW 22:31:04 19° NNE 22:35:38 10° ENE visible
27 Feb - 00:18:34 10° NW 00:25:18 70° NNE 00:31:47 10° ESE night (unlit)
27 Feb - 02:13:34 10° W 02:19:26 34° SSW 02:25:16 10° SE night (unlit)
27 Feb - 04:11:15 10° SW 04:14:28 14° SSW 04:17:43 10° SSE visible
27 Feb - 06:08:50 10° S 06:10:25 11° S 06:12:01 10° SSE visible
27 Feb - 08:01:17 10° SSW 08:06:10 20° SSE 08:11:13 10° ESE visible
27 Feb - 09:54:01 10° SW 10:00:58 55° SSE 10:08:20 10° ENE daylight
27 Feb - 11:48:15 10° WSW 11:55:18 48° NNW 12:02:42 10° NE daylight
27 Feb - 13:46:11 10° WNW 13:50:03 14° NNW 13:53:58 10° N daylight
27 Feb - 21:33:45 10° N 21:37:05 14° NNE 21:40:20 10° NE visible
27 Feb - 23:24:53 10° NW 23:31:32 50° NNE 23:37:52 10° ESE visible
28 Feb - 01:19:14 10° W 01:25:36 47° SSW 01:31:49 10° SE night (unlit)
28 Feb - 03:16:17 10° SW 03:20:20 17° SSW 03:24:24 10° SSE night (unlit)
28 Feb - 05:15:09 10° S 05:16:06 10° S 05:17:03 10° S visible
28 Feb - 07:08:04 10° SSW 07:12:00 16° SSE 07:16:02 10° SE visible
28 Feb - 09:00:32 10° SW 09:07:01 41° SSE 09:13:52 10° E daylight
28 Feb - 10:54:12 10° WSW 11:01:22 65° NNW 11:08:56 10° NE daylight
28 Feb - 12:50:41 10° WNW 12:55:54 20° NNW 13:01:15 10° NNE daylight
28 Feb - 22:31:21 10° NW 22:37:43 36° NNE 22:43:45 10° E visible
